Regional Weather Roundup
Issued by NWS Cleveland, OH

Home | Current Version | Previous Version | Text Only | Print | Product List | Glossary Off
Versions: 1 2 3 4 5 6 7 8 9 10 11 12 13 14 15 16 17 18 19 20 21 22 23 24 25 26 27 28 29 30 31 32 33 34 35 36 37 38 39 40 41 42 43 44 45 46 47 48 49 50

000
ASUS41 KCLE 010400
RWRCLE
OHIO REGIONAL WEATHER ROUNDUP
NATIONAL WEATHER SERVICE WILMINGTON, OH
1200 AM EDT SAT AUG 01 2015

NOTE: "FAIR" INDICATES FEW OR NO CLOUDS BELOW 12,000 FEET WITH NO
SIGNIFICANT WEATHER AND/OR OBSTRUCTIONS TO VISIBILITY.

OHZ001>008-015>018-024>027-034-035-043-044-010500-
   NORTHWEST OHIO

CITY           SKY/WX    TMP DP  RH WIND       PRES   REMARKS
DEFIANCE       CLEAR     67  54  63 W3        29.95R
FINDLAY        PTCLDY    71  57  61 W7        29.94R
TOLEDO EXPRESS CLEAR     68  54  60 W7        29.92R
TOLEDO EXEC    CLEAR     71  52  50 W8        29.92R
LIMA           PTCLDY    68  64  87 W6        29.96R
$$

OHZ009>014-019>023-028>033-038-089-010500-
   NORTHEAST OHIO

CITY           SKY/WX    TMP DP  RH WIND       PRES   REMARKS
CLE-HOPKINS    PTCLDY    69  60  73 W6        29.92R
CLE-LAKEFRONT  PTCLDY    78  63  59 W16       29.87S
CUY CO. ARPT   NOT AVBL
LORAIN-ELYRIA  MOCLDY    67  61  81 W6        29.91R
ASHTABULA      MOCLDY    71  60  68 W7        29.88R
AKRON-CANTON   PTCLDY    71  59  65 W7        29.92S
WOOSTER        NOT AVBL
MANSFIELD      CLEAR     70  61  73 W6        29.95R
YOUNGSTOWN     PTCLDY    72  59  63 W9        29.89S
$$

OHZ042-051>053-060>062-070>072-077>081-010500-
  SOUTHWEST OHIO

CITY           SKY/WX    TMP DP  RH WIND       PRES   REMARKS
CINC-COVINGTON CLEAR     71  61  70 W7        29.99S
CINC-LUNKEN    CLEAR     75  62  64 W7        29.98R
HAMILTON       CLEAR     67  63  87 CALM      29.98S
DAYTON         NOT AVBL
WRIGHT-PAT AFB CLEAR     71  64  79 CALM      29.96R
DAYTON GENERAL CLEAR     74  60  61 W5        29.97R
WILMINGTON     PTCLDY    74  58  57 W8        29.97R
$$

OHZ036-037-039>041-045>050-054>059-063>069-073>076-082>088-010500-
  CENTRAL AND SOUTHEAST OHIO

CITY           SKY/WX    TMP DP  RH WIND       PRES   REMARKS
COLUMBUS       PTCLDY    73  65  75 SW6       29.93S
OSU AIRPORT    PTCLDY    71  63  75 W7        29.94S
BOLTON FIELD   NOT AVBL
RICKENBACK AFB NOT AVBL
NEWARK         HVY RAIN  73  60  63 W12G32    29.93S
MARION         CLEAR     71  62  73 W7        29.95R
LANCASTER      MOCLDY    70  63  78 CALM      29.94F
ZANESVILLE     MOCLDY    74  60  61 SW6       29.93S
NEW PHILLY     MOCLDY    73  61  65 CALM      29.93R
$$



USA.gov is the U.S. government's official web portal to all federal, state and local government web resources and services.